BAW768 EGLL-ENGM

Flight info

Callsign BAW768
Flight time 1h 37m
Altitude 37000
Route BPK6J BPK Q295 MATCH P144 SAMHO DCT LARGA DCT INBOB M604 DANKO DCT PIPEX DCT ULMUG DCT RIPAM RIPAM3L
Aircraft A319/M-SDE2E3FGHIJ1RWXY/SB1

Departure

Time 2026-05-05 12:26
Airport London Heathrow Airport (EGLL)

Arrival

Time 2026-05-05 14:03
Airport Oslo-Gardermoen International Airport (ENGM)
Time Latitude Longitude Altitude Speed Heading
2026-05-05 11:44 51.47373 -0.45911 86 ft 0 kts 55°
2026-05-05 12:11 51.47372 -0.45911 86 ft 1 kts 55°
2026-05-05 12:11 51.47360 -0.45942 86 ft 4 kts 60°
2026-05-05 12:12 51.47347 -0.45980 91 ft 4 kts 57°
2026-05-05 12:12 51.47331 -0.46008 87 ft 4 kts
2026-05-05 12:12 51.47333 -0.46016 87 ft 4 kts 321°
2026-05-05 12:12 51.47350 -0.46047 90 ft 4 kts 319°
2026-05-05 12:13 51.47368 -0.46066 90 ft 4 kts 325°
2026-05-05 12:13 51.47390 -0.46091 88 ft 3 kts 325°
2026-05-05 12:13 51.47393 -0.46094 86 ft 0 kts 325°
2026-05-05 12:15 51.47399 -0.46100 86 ft 3 kts 325°
2026-05-05 12:15 51.47424 -0.46129 86 ft 6 kts 325°
2026-05-05 12:15 51.47463 -0.46171 86 ft 8 kts 327°
2026-05-05 12:16 51.47512 -0.46229 86 ft 10 kts 304°
2026-05-05 12:16 51.47516 -0.46346 88 ft 12 kts 270°
2026-05-05 12:16 51.47516 -0.46485 86 ft 14 kts 270°
2026-05-05 12:16 51.47515 -0.46646 86 ft 15 kts 270°
2026-05-05 12:17 51.47494 -0.46815 86 ft 16 kts 267°
2026-05-05 12:17 51.47493 -0.47009 86 ft 18 kts 269°
2026-05-05 12:17 51.47492 -0.47219 86 ft 19 kts 269°
2026-05-05 12:17 51.47459 -0.47356 86 ft 14 kts 188°
2026-05-05 12:18 51.47351 -0.47354 90 ft 16 kts 180°
2026-05-05 12:18 51.47231 -0.47353 88 ft 18 kts 179°
2026-05-05 12:18 51.47097 -0.47352 86 ft 20 kts 179°
2026-05-05 12:18 51.46952 -0.47351 86 ft 22 kts 179°
2026-05-05 12:19 51.46831 -0.47349 90 ft 9 kts 179°
2026-05-05 12:19 51.46774 -0.47349 90 ft 8 kts 179°
2026-05-05 12:19 51.46744 -0.47416 88 ft 9 kts 276°
2026-05-05 12:19 51.46745 -0.47532 86 ft 11 kts 270°
2026-05-05 12:20 51.46744 -0.47672 86 ft 13 kts 270°
2026-05-05 12:20 51.46744 -0.47831 88 ft 15 kts 270°
2026-05-05 12:20 51.46743 -0.48015 88 ft 17 kts 269°
2026-05-05 12:20 51.46743 -0.48109 86 ft 0 kts 269°
2026-05-05 12:21 51.46743 -0.48122 88 ft 4 kts 269°
2026-05-05 12:21 51.46741 -0.48173 89 ft 6 kts 259°
2026-05-05 12:21 51.46709 -0.48214 88 ft 7 kts 189°
2026-05-05 12:22 51.46655 -0.48213 88 ft 9 kts 180°
2026-05-05 12:22 51.46596 -0.48213 87 ft 0 kts 180°
2026-05-05 12:23 51.46581 -0.48213 87 ft 5 kts 180°
2026-05-05 12:23 51.46541 -0.48212 90 ft 7 kts 179°
2026-05-05 12:23 51.46483 -0.48199 90 ft 9 kts 141°
2026-05-05 12:24 51.46479 -0.48149 88 ft 0 kts 89°
2026-05-05 12:25 51.46479 -0.48139 88 ft 4 kts 89°
2026-05-05 12:25 51.46480 -0.47876 88 ft 53 kts 90°
2026-05-05 12:25 51.46484 -0.46944 89 ft 113 kts 89°
2026-05-05 12:25 51.46490 -0.45397 90 ft 166 kts 89°
2026-05-05 12:26 51.46496 -0.43485 619 ft 171 kts 88°
2026-05-05 12:26 51.46607 -0.41572 1281 ft 175 kts 70°
2026-05-05 12:26 51.47322 -0.39855 1524 ft 198 kts 46°
2026-05-05 12:26 51.48293 -0.38076 1769 ft 229 kts 48°
2026-05-05 12:27 51.49377 -0.36020 2301 ft 250 kts 49°
2026-05-05 12:27 51.50507 -0.33851 3257 ft 254 kts 49°
2026-05-05 12:27 51.51641 -0.31657 4300 ft 256 kts 50°
2026-05-05 12:27 51.52505 -0.29130 5209 ft 263 kts 69°
2026-05-05 12:28 51.53104 -0.26313 5785 ft 268 kts 70°
2026-05-05 12:28 51.53698 -0.23482 5957 ft 268 kts 70°
2026-05-05 12:28 51.54361 -0.20688 5996 ft 267 kts 59°
2026-05-05 12:28 51.55693 -0.18703 6003 ft 265 kts 24°
2026-05-05 12:29 51.57471 -0.17948 6006 ft 265 kts
2026-05-05 12:29 51.59247 -0.17309 6002 ft 265 kts 14°
2026-05-05 12:29 51.61033 -0.16638 6004 ft 265 kts 13°
2026-05-05 12:29 51.62832 -0.15980 6004 ft 265 kts 13°
2026-05-05 12:30 51.64628 -0.15284 6003 ft 265 kts 14°
2026-05-05 12:30 51.66412 -0.14547 6005 ft 265 kts 15°
2026-05-05 12:30 51.68196 -0.13774 6002 ft 265 kts 15°
2026-05-05 12:30 51.69969 -0.12982 6030 ft 267 kts 15°
2026-05-05 12:31 51.71770 -0.12157 6798 ft 269 kts 17°
2026-05-05 12:31 51.73443 -0.10808 7644 ft 273 kts 37°
2026-05-05 12:31 51.74721 -0.08531 8492 ft 278 kts 58°
2026-05-05 12:31 51.75254 -0.06643 9031 ft 282 kts 72°
2026-05-05 12:32 51.75593 -0.03506 9835 ft 286 kts 82°
2026-05-05 12:32 51.75854 -0.00248 10341 ft 303 kts 82°
2026-05-05 12:32 51.76138 0.03260 10595 ft 327 kts 82°
2026-05-05 12:32 51.76545 0.08207 11283 ft 341 kts 82°
2026-05-05 12:33 51.76861 0.12031 11961 ft 346 kts 82°
2026-05-05 12:33 51.77076 0.14643 12424 ft 349 kts 82°
2026-05-05 12:33 51.77394 0.18506 13086 ft 353 kts 82°
2026-05-05 12:33 51.77846 0.22472 13751 ft 357 kts 71°
2026-05-05 12:34 51.78945 0.26059 14387 ft 360 kts 55°
2026-05-05 12:34 51.80565 0.29160 15021 ft 363 kts 43°
2026-05-05 12:34 51.82428 0.31932 15643 ft 366 kts 43°
2026-05-05 12:34 51.84287 0.34779 16249 ft 369 kts 44°
2026-05-05 12:35 51.86136 0.37690 16830 ft 373 kts 44°
2026-05-05 12:35 51.87994 0.40655 17408 ft 377 kts 45°
2026-05-05 12:35 51.89871 0.43658 17974 ft 381 kts 45°
2026-05-05 12:35 51.91767 0.46679 18541 ft 385 kts 44°
2026-05-05 12:36 51.93692 0.49724 19124 ft 388 kts 44°
2026-05-05 12:36 51.95613 0.52754 19655 ft 392 kts 44°
2026-05-05 12:36 51.97575 0.55851 20191 ft 396 kts 44°
2026-05-05 12:36 51.99558 0.58986 20699 ft 400 kts 45°
2026-05-05 12:37 52.01561 0.62154 21220 ft 403 kts 44°
2026-05-05 12:37 52.03747 0.65033 21661 ft 408 kts 34°
2026-05-05 12:37 52.06071 0.67657 22103 ft 412 kts 34°
2026-05-05 12:37 52.08456 0.70363 22549 ft 416 kts 35°
2026-05-05 12:38 52.10831 0.73076 22983 ft 419 kts 35°
2026-05-05 12:38 52.13224 0.75817 23410 ft 423 kts 35°
2026-05-05 12:38 52.15643 0.78591 23810 ft 427 kts 35°
2026-05-05 12:38 52.18079 0.81393 24206 ft 430 kts 35°
2026-05-05 12:39 52.20531 0.84217 24615 ft 433 kts 35°
2026-05-05 12:39 52.22994 0.87056 25024 ft 436 kts 35°
2026-05-05 12:39 52.25478 0.89920 25409 ft 439 kts 35°
2026-05-05 12:39 52.27978 0.92807 25801 ft 441 kts 35°
2026-05-05 12:40 52.30456 0.95675 26193 ft 444 kts 35°
2026-05-05 12:40 52.32983 0.98610 26570 ft 447 kts 36°
2026-05-05 12:40 52.35523 1.01564 26944 ft 449 kts 36°
2026-05-05 12:40 52.38076 1.04527 27326 ft 451 kts 36°
2026-05-05 12:41 52.40644 1.07508 27677 ft 454 kts 36°
2026-05-05 12:41 52.43226 1.10512 28031 ft 456 kts 36°
2026-05-05 12:41 52.45817 1.13534 28369 ft 459 kts 36°
2026-05-05 12:41 52.48420 1.16576 28696 ft 461 kts 36°
2026-05-05 12:42 52.51042 1.19640 29025 ft 463 kts 36°
2026-05-05 12:42 52.53671 1.22716 29340 ft 466 kts 36°
2026-05-05 12:42 52.56312 1.25813 29650 ft 467 kts 36°
2026-05-05 12:42 52.58963 1.28928 29953 ft 469 kts 36°
2026-05-05 12:43 52.61626 1.32058 30252 ft 471 kts 36°
2026-05-05 12:43 52.64296 1.35201 30545 ft 473 kts 36°
2026-05-05 12:43 52.66979 1.38370 30822 ft 475 kts 36°
2026-05-05 12:43 52.69673 1.41554 31159 ft 475 kts 36°
2026-05-05 12:44 52.72361 1.44733 31530 ft 475 kts 36°
2026-05-05 12:44 52.75008 1.47872 31895 ft 474 kts 36°
2026-05-05 12:44 52.77686 1.51057 32263 ft 474 kts 36°
2026-05-05 12:44 52.80358 1.54239 32624 ft 473 kts 36°
2026-05-05 12:45 52.83026 1.57418 33003 ft 472 kts 36°
2026-05-05 12:45 52.85690 1.60594 33367 ft 471 kts 36°
2026-05-05 12:45 52.88345 1.63768 33720 ft 471 kts 36°
2026-05-05 12:45 52.91004 1.66952 34059 ft 471 kts 36°
2026-05-05 12:46 52.93657 1.70131 34425 ft 470 kts 36°
2026-05-05 12:46 52.96304 1.73309 34772 ft 469 kts 36°
2026-05-05 12:46 52.98951 1.76494 34947 ft 469 kts 36°
2026-05-05 12:46 53.01590 1.79679 34979 ft 468 kts 36°
2026-05-05 12:47 53.06851 1.86031 34980 ft 467 kts 36°
2026-05-05 12:47 53.12108 1.92385 34979 ft 467 kts 36°
2026-05-05 12:48 53.17354 1.98764 34983 ft 467 kts 36°
2026-05-05 12:48 53.19975 2.01957 35204 ft 467 kts 36°
2026-05-05 12:48 53.22600 2.05154 35480 ft 466 kts 36°
2026-05-05 12:49 53.25221 2.08349 35749 ft 466 kts 36°
2026-05-05 12:49 53.27850 2.11506 36031 ft 466 kts 34°
2026-05-05 12:49 53.30518 2.14595 36320 ft 466 kts 33°
2026-05-05 12:49 53.33173 2.17586 36546 ft 466 kts 33°
2026-05-05 12:50 53.35876 2.20595 36791 ft 466 kts 33°
2026-05-05 12:50 53.38573 2.23604 36967 ft 465 kts 33°
2026-05-05 12:50 53.43906 2.29631 36997 ft 459 kts 33°
2026-05-05 12:51 53.49163 2.35681 36998 ft 458 kts 34°
2026-05-05 12:51 53.54305 2.42029 36999 ft 458 kts 36°
2026-05-05 12:52 53.59352 2.48531 36999 ft 457 kts 37°
2026-05-05 12:52 53.64405 2.55028 36995 ft 456 kts 36°
2026-05-05 12:53 53.69454 2.61412 36988 ft 456 kts 36°
2026-05-05 12:53 53.74537 2.67843 36987 ft 457 kts 36°
2026-05-05 12:54 53.82166 2.77569 36989 ft 457 kts 36°
2026-05-05 12:55 53.87239 2.84066 36988 ft 458 kts 36°
2026-05-05 12:55 53.92310 2.90602 36988 ft 457 kts 36°
2026-05-05 12:56 53.97378 2.97134 36989 ft 457 kts 36°
2026-05-05 12:56 54.02450 3.03681 36987 ft 458 kts 36°
2026-05-05 12:57 54.07483 3.10215 36986 ft 458 kts 36°
2026-05-05 12:57 54.12541 3.16810 36986 ft 458 kts 36°
2026-05-05 12:58 54.17607 3.23422 36987 ft 458 kts 36°
2026-05-05 12:58 54.22671 3.30058 36990 ft 459 kts 36°
2026-05-05 12:59 54.27732 3.36704 36993 ft 459 kts 36°
2026-05-05 12:59 54.32793 3.43358 36997 ft 459 kts 36°
2026-05-05 13:00 54.40376 3.53395 37000 ft 459 kts 36°
2026-05-05 13:01 54.50448 3.66804 36999 ft 459 kts 36°
2026-05-05 13:01 54.55500 3.73542 36996 ft 459 kts 36°
2026-05-05 13:02 54.60534 3.80317 36994 ft 459 kts 36°
2026-05-05 13:02 54.65565 3.87104 36991 ft 459 kts 36°
2026-05-05 13:03 54.70573 3.93846 36988 ft 459 kts 36°
2026-05-05 13:03 54.75613 4.00662 36987 ft 460 kts 36°
2026-05-05 13:04 54.80651 4.07502 36986 ft 460 kts 36°
2026-05-05 13:04 54.85686 4.14377 36981 ft 461 kts 36°
2026-05-05 13:05 54.91013 4.20517 36984 ft 460 kts 30°
2026-05-05 13:05 54.96408 4.26529 36986 ft 460 kts 30°
2026-05-05 13:06 55.01797 4.32576 36986 ft 461 kts 30°
2026-05-05 13:06 55.07190 4.38643 36987 ft 462 kts 30°
2026-05-05 13:07 55.12591 4.44734 36988 ft 462 kts 30°
2026-05-05 13:07 55.17982 4.50852 36988 ft 462 kts 30°
2026-05-05 13:08 55.23346 4.56958 36987 ft 462 kts 30°
2026-05-05 13:08 55.28735 4.63108 36988 ft 462 kts 30°
2026-05-05 13:09 55.34133 4.69285 36986 ft 463 kts 30°
2026-05-05 13:09 55.39526 4.75481 36987 ft 463 kts 30°
2026-05-05 13:10 55.44915 4.81692 36989 ft 463 kts 30°
2026-05-05 13:10 55.50306 4.87925 36993 ft 463 kts 30°
2026-05-05 13:11 55.55691 4.94171 36994 ft 463 kts 30°
2026-05-05 13:11 55.61044 5.00409 36996 ft 463 kts 30°
2026-05-05 13:12 55.66430 5.06698 36995 ft 463 kts 30°
2026-05-05 13:12 55.71809 5.12990 36996 ft 463 kts 30°
2026-05-05 13:13 55.77188 5.19312 36995 ft 463 kts 30°
2026-05-05 13:13 55.82558 5.25654 36993 ft 464 kts 30°
2026-05-05 13:14 55.87935 5.32021 36988 ft 464 kts 30°
2026-05-05 13:14 55.93285 5.38385 36985 ft 465 kts 30°
2026-05-05 13:15 55.98664 5.44785 36987 ft 465 kts 30°
2026-05-05 13:15 56.04049 5.51210 36990 ft 465 kts 30°
2026-05-05 13:16 56.09423 5.57669 36992 ft 465 kts 30°
2026-05-05 13:16 56.14799 5.64142 36991 ft 465 kts 30°
2026-05-05 13:17 56.20171 5.70632 36986 ft 465 kts 30°
2026-05-05 13:17 56.25540 5.77137 36983 ft 465 kts 30°
2026-05-05 13:18 56.30912 5.83662 36981 ft 465 kts 30°
2026-05-05 13:18 56.36243 5.90164 36979 ft 465 kts 30°
2026-05-05 13:19 56.41609 5.96739 36976 ft 466 kts 31°
2026-05-05 13:19 56.46974 6.03330 36979 ft 466 kts 30°
2026-05-05 13:20 56.52331 6.09940 36976 ft 466 kts 31°
2026-05-05 13:20 56.56778 6.15460 36975 ft 466 kts 31°
2026-05-05 13:21 56.62135 6.22111 36968 ft 467 kts 30°
2026-05-05 13:21 56.68372 6.29867 36961 ft 467 kts 31°
2026-05-05 13:22 56.72867 6.35488 36961 ft 468 kts 31°
2026-05-05 13:22 56.78233 6.42230 36961 ft 469 kts 31°
2026-05-05 13:23 56.83604 6.48998 36960 ft 468 kts 30°
2026-05-05 13:23 56.88932 6.55713 36961 ft 469 kts 30°
2026-05-05 13:24 56.94295 6.62510 36961 ft 469 kts 30°
2026-05-05 13:24 56.99658 6.69324 36961 ft 469 kts 30°
2026-05-05 13:25 57.05084 6.76021 36959 ft 469 kts 28°
2026-05-05 13:25 57.10581 6.82507 36959 ft 469 kts 28°
2026-05-05 13:26 57.16080 6.89002 36960 ft 470 kts 28°
2026-05-05 13:26 57.21555 6.95600 36962 ft 470 kts 29°
2026-05-05 13:27 57.27024 7.02263 36957 ft 470 kts 28°
2026-05-05 13:27 57.32492 7.08920 36955 ft 471 kts 28°
2026-05-05 13:28 57.37970 7.15581 36947 ft 471 kts 28°
2026-05-05 13:28 57.43416 7.22238 36944 ft 472 kts 29°
2026-05-05 13:29 57.48895 7.28993 36944 ft 472 kts 28°
2026-05-05 13:29 57.54371 7.35751 36942 ft 472 kts 28°
2026-05-05 13:30 57.59854 7.42533 36942 ft 473 kts 28°
2026-05-05 13:30 57.65344 7.49339 36942 ft 473 kts 29°
2026-05-05 13:31 57.70823 7.56169 36942 ft 474 kts 29°
2026-05-05 13:31 57.76318 7.63047 36940 ft 475 kts 28°
2026-05-05 13:32 57.81775 7.69902 36937 ft 475 kts 29°
2026-05-05 13:32 57.87256 7.76821 36936 ft 475 kts 29°
2026-05-05 13:33 57.92735 7.83763 36935 ft 475 kts 29°
2026-05-05 13:33 57.98228 7.90736 36932 ft 476 kts 28°
2026-05-05 13:34 58.03722 7.97739 36935 ft 477 kts 29°
2026-05-05 13:34 58.09217 8.04777 36941 ft 478 kts 29°
2026-05-05 13:35 58.14718 8.11837 36943 ft 477 kts 29°
2026-05-05 13:35 58.20214 8.18924 36937 ft 478 kts 29°
2026-05-05 13:36 58.25666 8.25989 36936 ft 477 kts 29°
2026-05-05 13:36 58.31149 8.33116 36936 ft 478 kts 29°
2026-05-05 13:37 58.36632 8.40279 36937 ft 478 kts 29°
2026-05-05 13:37 58.42116 8.47446 36934 ft 478 kts 29°
2026-05-05 13:38 58.47601 8.54638 36936 ft 479 kts 29°
2026-05-05 13:38 58.53087 8.61904 36779 ft 481 kts 30°
2026-05-05 13:39 58.55834 8.65553 36527 ft 481 kts 29°
2026-05-05 13:39 58.58588 8.69204 36281 ft 481 kts 29°
2026-05-05 13:39 58.61347 8.72861 36033 ft 483 kts 29°
2026-05-05 13:39 58.64120 8.76541 35391 ft 487 kts 29°
2026-05-05 13:40 58.66932 8.80272 34479 ft 495 kts 29°
2026-05-05 13:40 58.69788 8.84076 33498 ft 503 kts 28°
2026-05-05 13:40 58.72681 8.87944 32493 ft 510 kts 28°
2026-05-05 13:40 58.75606 8.91876 31751 ft 511 kts 28°
2026-05-05 13:41 58.78500 8.95790 31157 ft 507 kts 28°
2026-05-05 13:41 58.81341 8.99646 30531 ft 505 kts 28°
2026-05-05 13:41 58.84212 9.03550 29942 ft 502 kts 28°
2026-05-05 13:41 58.87024 9.07498 29363 ft 499 kts 30°
2026-05-05 13:42 58.89774 9.11590 28769 ft 497 kts 31°
2026-05-05 13:42 58.92464 9.15779 28199 ft 494 kts 32°
2026-05-05 13:42 58.95108 9.19988 27622 ft 491 kts 33°
2026-05-05 13:42 58.97733 9.24174 27051 ft 487 kts 32°
2026-05-05 13:43 59.00354 9.28314 26474 ft 484 kts 32°
2026-05-05 13:43 59.02960 9.32389 25929 ft 479 kts 31°
2026-05-05 13:43 59.05554 9.36411 25367 ft 474 kts 31°
2026-05-05 13:43 59.08121 9.40382 24862 ft 470 kts 31°
2026-05-05 13:44 59.10670 9.44328 24341 ft 466 kts 31°
2026-05-05 13:44 59.13193 9.48245 23850 ft 462 kts 31°
2026-05-05 13:44 59.15691 9.52139 23357 ft 459 kts 31°
2026-05-05 13:44 59.18176 9.56026 22885 ft 455 kts 30°
2026-05-05 13:45 59.20738 9.59509 22424 ft 446 kts 25°
2026-05-05 13:45 59.23320 9.62818 21952 ft 442 kts 25°
2026-05-05 13:45 59.25884 9.66109 21484 ft 440 kts 25°
2026-05-05 13:45 59.28416 9.69381 21263 ft 429 kts 25°
2026-05-05 13:46 59.30865 9.72568 21133 ft 416 kts 25°
2026-05-05 13:46 59.33183 9.75711 21019 ft 408 kts 30°
2026-05-05 13:46 59.35368 9.79157 20712 ft 398 kts 30°
2026-05-05 13:46 59.37514 9.82552 20220 ft 393 kts 30°
2026-05-05 13:47 59.39633 9.85913 19734 ft 390 kts 31°
2026-05-05 13:47 59.41722 9.89231 19262 ft 382 kts 31°
2026-05-05 13:47 59.43772 9.92505 18651 ft 378 kts 31°
2026-05-05 13:47 59.45797 9.95750 18083 ft 372 kts 31°
2026-05-05 13:48 59.47791 9.98950 17512 ft 366 kts 32°
2026-05-05 13:48 59.49745 10.02093 16936 ft 360 kts 32°
2026-05-05 13:48 59.51675 10.05196 16373 ft 356 kts 32°
2026-05-05 13:48 59.53574 10.08249 15816 ft 350 kts 32°
2026-05-05 13:49 59.55444 10.11263 15292 ft 344 kts 33°
2026-05-05 13:49 59.57262 10.14196 14790 ft 339 kts 33°
2026-05-05 13:49 59.59067 10.17116 14264 ft 333 kts 34°
2026-05-05 13:49 59.60846 10.19994 13763 ft 327 kts 34°
2026-05-05 13:50 59.62587 10.22812 13286 ft 320 kts 34°
2026-05-05 13:50 59.64297 10.25582 12796 ft 315 kts 34°
2026-05-05 13:50 59.65975 10.28305 12364 ft 308 kts 35°
2026-05-05 13:50 59.67619 10.30990 12090 ft 304 kts 36°
2026-05-05 13:51 59.69239 10.33635 11813 ft 300 kts 36°
2026-05-05 13:51 59.70845 10.36249 11512 ft 298 kts 36°
2026-05-05 13:51 59.72537 10.38538 11188 ft 290 kts 18°
2026-05-05 13:51 59.74467 10.39258 10937 ft 279 kts 353°
2026-05-05 13:52 59.76281 10.38342 10892 ft 261 kts 329°
2026-05-05 13:52 59.77696 10.36316 10900 ft 245 kts 316°
2026-05-05 13:52 59.78978 10.34152 10904 ft 241 kts 317°
2026-05-05 13:52 59.80443 10.32554 10758 ft 243 kts 341°
2026-05-05 13:53 59.82117 10.32439 10482 ft 250 kts
2026-05-05 13:53 59.83687 10.33972 10192 ft 258 kts 38°
2026-05-05 13:53 59.84771 10.36835 9877 ft 262 kts 57°
2026-05-05 13:53 59.85686 10.39973 9564 ft 262 kts 57°
2026-05-05 13:54 59.86599 10.43112 9373 ft 264 kts 57°
2026-05-05 13:54 59.87526 10.46287 9050 ft 265 kts 57°
2026-05-05 13:54 59.88450 10.49457 8750 ft 265 kts 58°
2026-05-05 13:54 59.89374 10.52632 8449 ft 265 kts 58°
2026-05-05 13:55 59.90297 10.55807 8148 ft 266 kts 57°
2026-05-05 13:55 59.91226 10.58990 7827 ft 265 kts 57°
2026-05-05 13:55 59.92152 10.62165 7496 ft 264 kts 57°
2026-05-05 13:55 59.93068 10.65317 7175 ft 261 kts 58°
2026-05-05 13:56 59.93973 10.68452 6850 ft 260 kts 58°
2026-05-05 13:56 59.94871 10.71575 6522 ft 258 kts 58°
2026-05-05 13:56 59.95752 10.74636 6199 ft 257 kts 58°
2026-05-05 13:56 59.96637 10.77706 5882 ft 255 kts 58°
2026-05-05 13:57 59.97424 10.80841 5587 ft 249 kts 70°
2026-05-05 13:57 59.97852 10.84120 5356 ft 238 kts 75°
2026-05-05 13:57 59.98233 10.87239 5120 ft 225 kts 75°
2026-05-05 13:57 59.98600 10.90206 4881 ft 214 kts 75°
2026-05-05 13:58 59.98980 10.93011 4620 ft 207 kts 66°
2026-05-05 13:58 59.99719 10.95379 4433 ft 199 kts 45°
2026-05-05 13:58 60.00793 10.97051 4224 ft 194 kts 25°
2026-05-05 13:58 60.02046 10.97953 3988 ft 190 kts 12°
2026-05-05 13:59 60.04532 10.99369 3496 ft 180 kts 12°
2026-05-05 13:59 60.05725 11.00051 3259 ft 177 kts 12°
2026-05-05 14:00 60.08018 11.01363 2794 ft 168 kts 12°
2026-05-05 14:00 60.08775 11.01796 2661 ft 167 kts 12°
2026-05-05 14:00 60.10238 11.02632 2366 ft 164 kts 13°
2026-05-05 14:00 60.11330 11.03257 2150 ft 163 kts 13°
2026-05-05 14:01 60.12406 11.03874 1931 ft 153 kts 13°
2026-05-05 14:01 60.13376 11.04433 1730 ft 139 kts 13°
2026-05-05 14:01 60.14292 11.04957 1557 ft 135 kts 13°
2026-05-05 14:01 60.15184 11.05466 1371 ft 132 kts 13°
2026-05-05 14:02 60.16070 11.05973 1185 ft 132 kts 13°
2026-05-05 14:02 60.16948 11.06474 1044 ft 132 kts 13°
2026-05-05 14:02 60.17829 11.06984 835 ft 133 kts 14°
2026-05-05 14:02 60.18711 11.07501 686 ft 132 kts 14°
2026-05-05 14:03 60.19475 11.07936 673 ft 92 kts 16°
2026-05-05 14:03 60.19915 11.08191 675 ft 44 kts 16°
2026-05-05 14:03 60.20162 11.08372 675 ft 29 kts 29°
2026-05-05 14:03 60.20251 11.08566 677 ft 9 kts 81°
2026-05-05 14:04 60.20248 11.08626 677 ft 0 kts 105°
2026-05-05 14:04 60.20248 11.08627 677 ft 0 kts 105°
2026-05-05 14:05 60.20243 11.08660 678 ft 4 kts 106°
2026-05-05 14:05 60.20237 11.08705 679 ft 3 kts 106°
2026-05-05 14:05 60.20227 11.08773 678 ft 6 kts 106°
2026-05-05 14:05 60.20213 11.08873 681 ft 8 kts 106°
2026-05-05 14:06 60.20198 11.08960 678 ft 7 kts 111°
2026-05-05 14:06 60.20181 11.09067 679 ft 8 kts 105°
2026-05-05 14:06 60.20168 11.09161 680 ft 6 kts 106°
2026-05-05 14:06 60.20155 11.09251 677 ft 9 kts 106°
2026-05-05 14:07 60.20133 11.09402 680 ft 14 kts 106°
2026-05-05 14:07 60.20102 11.09626 683 ft 18 kts 106°
2026-05-05 14:07 60.20067 11.09865 681 ft 18 kts 107°
2026-05-05 14:07 60.20035 11.10084 679 ft 15 kts 107°
2026-05-05 14:08 60.20010 11.10267 682 ft 13 kts 107°
2026-05-05 14:08 60.19983 11.10453 682 ft 14 kts 106°
2026-05-05 14:08 60.19963 11.10588 682 ft 16 kts 106°
2026-05-05 14:08 60.19920 11.10889 682 ft 18 kts 105°
2026-05-05 14:09 60.19884 11.11148 683 ft 19 kts 105°
2026-05-05 14:09 60.19850 11.11386 680 ft 17 kts 106°
2026-05-05 14:09 60.19804 11.11502 681 ft 10 kts 188°
2026-05-05 14:09 60.19742 11.11467 684 ft 9 kts 195°
2026-05-05 14:10 60.19705 11.11446 683 ft 8 kts 196°
2026-05-05 14:10 60.19657 11.11418 681 ft 7 kts 196°
2026-05-05 14:10 60.19620 11.11396 681 ft 5 kts 196°
2026-05-05 14:10 60.19592 11.11380 683 ft 5 kts 196°
2026-05-05 14:11 60.19549 11.11356 679 ft 8 kts 195°
2026-05-05 14:11 60.19477 11.11313 682 ft 13 kts 197°
2026-05-05 14:11 60.19377 11.11256 681 ft 17 kts 195°
2026-05-05 14:11 60.19250 11.11183 685 ft 21 kts 195°
2026-05-05 14:12 60.19177 11.11127 685 ft 9 kts 232°
2026-05-05 14:12 60.19181 11.11015 681 ft 7 kts 285°
2026-05-05 14:12 60.19194 11.10927 685 ft 6 kts 286°
2026-05-05 14:12 60.19205 11.10845 683 ft 7 kts 285°
2026-05-05 14:13 60.19220 11.10741 682 ft 8 kts 286°
2026-05-05 14:13 60.19234 11.10648 683 ft 6 kts 287°
2026-05-05 14:13 60.19244 11.10574 684 ft 5 kts 286°
2026-05-05 14:13 60.19253 11.10512 682 ft 4 kts 286°
2026-05-05 14:14 60.19261 11.10452 684 ft 5 kts 285°
2026-05-05 14:14 60.19271 11.10399 684 ft 3 kts 303°
2026-05-05 14:14 60.19286 11.10399 683 ft 2 kts
2026-05-05 14:14 60.19290 11.10401 685 ft 0 kts 12°
2026-05-05 14:15 60.19295 11.10404 685 ft 2 kts 14°
2026-05-05 14:15 60.19303 11.10408 685 ft 1 kts 15°
2026-05-05 14:15 60.19317 11.10416 683 ft 2 kts 15°
2026-05-05 14:15 60.19324 11.10420 685 ft 0 kts 16°
2026-05-05 14:16 60.19325 11.10420 684 ft 0 kts 16°
2026-05-05 14:18 60.19326 11.10421 685 ft 0 kts 16°